Wind_Speed
38 37 39 41 43 43 48 58 69 81 97 112 126 137 144 139 134 128 123 116 111 112 114 114 109 105 106 104 98 93 88 84 83 81 77 75 74 71 69 67 66 64 65 65
31 31 30 30 34 39 43 51 61 73 82 95 115 137 139 143 134 131 128 121 114 109 112 114 111 107 105 105 102 98 93 90 87 84 81 79 75 71 70 70 70 69 68 68
29 26 27 24 27 33 39 45 54 66 74 84 106 126 137 137 139 135 131 124 118 108 109 111 112 110 105 101 102 100 98 94 90 85 86 83 80 77 76 75 73 72 71 71
28 27 29 25 24 27 34 38 46 58 68 80 96 111 132 134 139 137 132 129 119 111 106 109 109 108 104 103 104 102 100 96 92 91 90 87 85 83 80 79 77 76 73 71
32 31 28 28 24 22 31 34 43 54 64 72 80 104 116 132 136 138 133 129 119 111 107 106 105 102 98 101 102 102 99 98 93 93 92 92 90 87 85 85 80 76 75 77
34 35 31 30 30 25 23 32 40 49 56 56 79 90 114 126 133 134 133 129 120 111 107 104 102 103 99 95 94 98 98 96 93 91 91 91 92 90 88 84 80 81 80 79
42 35 33 32 31 27 23 29 36 41 49 62 80 86 107 117 123 132 131 129 120 113 109 104 99 101 100 93 89 86 86 90 93 91 90 88 87 89 86 80 76 79 80 81
38 39 33 31 31 26 24 28 36 38 47 59 70 66 90 110 118 127 133 129 124 119 115 109 104 100 98 95 90 83 77 80 84 87 86 88 88 90 86 85 85 84 86 86
33 35 31 29 31 30 24 29 35 35 41 51 51 59 89 107 119 131 135 136 128 120 115 109 105 99 96 94 86 76 75 74 75 77 75 76 78 81 83 83 84 79 78 77
37 30 32 30 26 27 24 25 28 30 35 44 54 60 79 105 120 124 128 128 121 114 113 108 104 102 98 85 78 72 69 72 70 69 72 74 72 73 72 73 73 73 71 67
35 30 29 25 22 20 20 20 21 23 31 42 48 60 77 96 111 117 118 116 112 112 110 111 100 96 89 80 73 71 69 65 63 61 63 64 63 62 64 61 64 62 64 61
38 31 24 21 18 16 15 13 13 20 29 41 52 62 75 92 105 111 109 109 109 110 108 101 99 87 82 79 72 72 68 64 62 58 56 52 47 49 49 49 49 49 51 54
34 26 20 18 13 9 6 5 10 19 31 40 50 66 74 88 107 107 105 103 108 112 100 97 97 89 79 73 72 73 65 62 60 58 52 44 46 46 47 47 48 50 52 56
31 23 19 14 10 7 3 4 8 16 24 36 46 56 69 86 103 107 105 102 106 102 94 93 90 81 76 74 70 68 65 60 57 53 48 44 48 48 49 51 52 53 55 57
27 19 14 14 10 12 10 9 14 25 32 36 41 52 67 83 97 98 97 94 99 100 89 87 82 76 74 68 66 65 59 55 52 47 45 46 47 47 47 51 55 57 58 61
20 15 13 12 14 13 16 18 19 25 31 33 43 56 68 81 92 92 80 91 94 90 83 83 80 76 69 64 64 60 56 55 50 48 48 49 49 49 50 53 56 59 60 62
18 12 13 15 16 15 21 19 21 23 25 31 42 54 69 80 81 74 86 91 89 83 80 80 77 71 66 64 62 58 55 51 49 48 47 48 49 52 53 56 58 59 61 64
13 14 15 20 23 16 21 20 19 21 26 35 44 54 65 71 75 84 90 89 89 81 77 76 73 67 63 61 58 55 54 49 47 48 46 47 50 52 54 54 56 59 62 63
14 17 22 32 31 24 19 22 18 21 25 41 51 72 68 69 72 88 90 94 87 79 75 72 65 59 56 57 56 53 53 50 49 49 49 51 54 54 55 56 58 61 62 63
24 29 36 42 41 33 27 22 13 12 34 53 66 59 65 68 76 89 91 92 86 80 76 66 58 53 50 51 53 52 51 50 49 50 50 51 54 58 58 59 61 64 65 66
33 31 37 44 45 41 41 38 32 34 35 52 58 55 65 68 81 87 88 88 86 80 66 58 54 54 52 51 51 51 49 49 48 49 50 52 55 56 57 58 61 63 64 65
39 48 42 45 45 41 40 40 32 40 40 45 54 58 60 72 85 88 85 82 79 72 64 60 57 57 52 48 47 46 48 49 51 50 51 53 54 53 55 57 60 63 66 68
43 51 54 48 45 48 52 46 45 43 40 30 44 54 63 73 80 83 79 74 71 67 62 59 55 55 53 50 48 47 50 50 51 52 53 54 54 56 59 61 64 66 68 68
35 56 54 55 50 46 47 44 37 29 31 32 37 48 56 70 77 75 73 68 63 63 60 56 52 51 51 49 47 46 48 50 52 52 50 51 55 60 62 65 65 63 66 68
41 53 61 60 45 50 43 40 42 32 30 29 33 40 44 62 69 67 65 62 61 58 56 54 53 51 50 48 46 48 51 51 49 51 53 57 61 63 65 67 67 68 70 74
48 53 67 59 50 48 48 41 39 35 37 37 36 41 39 49 62 60 61 60 57 55 53 53 53 53 54 51 49 50 50 50 52 55 57 57 60 64 67 69 71 73 74 76
Wind_Direction
289 277 272 267 263 253 239 234 230 227 224 218 214 211 216 216 218 219 222 222 219 220 227 229 227 223 225 228 230 231 233 235 237 241 244 247 249 252 254 255 257 262 267 270
294 284 275 266 262 251 243 232 229 228 224 219 214 212 213 215 215 218 220 221 220 218 222 229 229 226 224 227 231 233 234 235 238 240 244 248 250 253 253 255 260 263 267 272
309 301 291 274 261 256 242 234 229 228 224 218 215 212 211 213 214 215 218 220 220 217 220 225 228 229 226 226 230 234 235 236 238 241 243 246 249 251 254 258 261 264 268 273
324 315 301 293 269 256 253 238 232 226 225 219 215 212 210 212 212 213 216 218 218 218 218 222 228 230 229 225 228 232 234 236 237 239 243 246 248 250 254 258 261 264 269 274
330 323 313 299 287 270 254 244 232 226 225 222 217 212 210 210 212 212 215 216 216 216 218 220 224 227 227 228 227 230 233 236 239 241 244 246 248 251 254 256 260 265 267 268
331 329 317 305 296 282 254 246 239 230 225 221 221 210 209 208 210 212 213 215 214 214 218 219 220 225 227 229 230 231 233 235 238 241 244 248 251 254 257 260 262 264 265 268
341 333 319 306 299 288 272 250 243 231 221 215 219 208 209 205 206 212 211 213 213 214 217 220 220 224 229 229 230 233 234 235 237 239 243 247 250 254 258 260 261 263 265 268
340 331 319 307 298 287 272 257 247 233 224 221 222 209 207 203 204 210 211 211 210 213 215 217 218 221 225 229 232 233 233 234 236 240 243 245 248 251 256 258 261 265 268 269
334 327 316 304 298 290 273 256 247 239 229 222 221 210 207 201 203 206 210 211 209 210 212 215 218 221 222 225 228 231 235 236 238 240 243 246 247 249 254 258 261 262 266 269
332 334 317 311 300 290 279 263 248 237 225 214 213 204 204 200 201 206 208 211 209 209 211 213 216 219 224 224 224 228 233 237 240 242 245 249 252 254 256 257 260 264 266 266
329 326 323 317 304 296 280 266 247 231 216 209 204 198 204 199 201 204 207 206 206 207 210 215 216 218 219 219 221 227 232 236 240 243 246 249 252 255 258 260 261 263 266 267
336 335 338 325 319 299 285 264 237 215 210 204 198 196 199 193 199 202 202 204 203 205 209 212 214 213 213 216 220 226 230 233 238 242 246 249 248 253 255 258 260 261 263 262
338 347 343 344 324 322 304 260 213 201 206 203 194 193 193 192 193 199 199 200 202 206 207 206 212 211 210 212 217 224 227 231 236 240 245 247 249 251 256 257 259 260 261 261
344 359 355 354 3 5 62 125 181 193 198 197 194 196 193 191 195 194 195 197 201 199 197 203 207 206 209 212 215 221 225 228 234 238 241 240 246 250 254 256 257 258 259 261
346 7 7 24 42 68 87 127 171 181 183 189 190 190 193 190 193 196 195 193 197 197 192 197 202 206 209 211 216 221 223 228 232 234 237 242 246 250 252 253 257 259 262 264
0 25 33 50 78 112 123 134 165 179 170 181 179 184 191 189 189 192 187 193 194 191 192 198 201 204 205 210 217 220 223 226 230 230 236 241 246 248 248 252 256 258 261 264
19 39 68 94 111 128 130 149 173 183 178 171 177 181 185 185 184 182 187 190 187 188 195 200 202 202 204 209 215 219 220 220 224 231 233 239 242 246 250 254 256 260 263 265
43 75 100 110 113 113 135 153 177 187 171 169 175 175 171 185 178 184 187 186 184 189 197 200 201 201 205 210 215 219 224 225 221 224 227 231 237 246 250 254 257 261 265 270
80 101 123 109 108 124 150 153 172 188 164 160 163 160 178 180 178 186 185 182 184 191 196 197 199 200 204 210 214 218 221 224 227 230 234 240 245 250 254 256 260 264 267 270
112 127 125 116 103 99 120 120 135 167 159 157 161 166 173 173 179 184 184 183 187 192 196 194 196 198 202 210 213 217 221 225 231 234 237 241 244 249 254 258 262 266 268 271
126 126 122 121 118 115 125 120 117 115 149 161 167 166 170 173 177 182 186 187 191 194 193 193 195 201 207 213 217 219 224 227 232 235 238 242 247 253 258 261 265 268 270 274
135 131 132 126 120 118 123 119 129 129 144 157 163 168 171 177 178 179 185 190 195 195 192 194 200 204 210 212 217 220 224 229 233 237 243 245 250 255 259 262 265 268 270 273
145 135 129 119 124 126 134 132 130 133 147 157 171 172 175 179 180 183 186 191 196 197 200 202 207 209 215 218 222 225 228 234 238 242 248 252 258 261 263 267 269 271 275 279
157 144 140 138 135 135 126 122 127 144 152 153 154 169 180 181 182 186 188 190 197 201 203 206 209 213 218 220 225 230 233 236 240 245 251 257 260 261 263 267 272 277 278 280
166 154 150 146 139 144 137 125 136 140 155 157 159 156 176 185 184 186 188 190 196 201 205 208 211 216 219 224 229 234 237 239 242 247 253 255 258 264 267 270 274 276 278 280
172 163 159 148 144 142 149 142 147 159 144 138 151 159 170 184 187 188 191 192 195 201 205 212 217 220 223 228 234 239 241 244 247 250 253 257 262 266 268 271 274 277 280 282
Height
10454 10449 10446 10444 10443 10444 10448 10453 10461 10469 10482 10506 10539 10563 10558 10589 10614 10641 10658 10684 10709 10728 10732 10747 10766 10784 10795 10802 10812 10823 10831 10841 10844 10849 10858 10864 10870 10876 10881 10885 10888 10892 10892 10893
10444 10437 10435 10432 10431 10431 10432 10436 10442 10447 10463 10487 10510 10518 10541 10564 10603 10623 10636 10664 10690 10710 10722 10729 10747 10767 10781 10791 10801 10810 10820 10824 10832 10840 10849 10854 10861 10867 10870 10874 10879 10881 10883 10884
10434 10429 10423 10423 10420 10418 10419 10423 10428 10434 10448 10465 10476 10499 10520 10551 10577 10596 10617 10647 10672 10696 10711 10717 10730 10747 10766 10784 10791 10796 10802 10813 10822 10832 10836 10844 10850 10855 10859 10865 10868 10871 10872 10874
10428 10420 10414 10413 10411 10408 10406 10413 10417 10421 10431 10439 10451 10485 10499 10529 10553 10579 10603 10623 10658 10683 10697 10709 10718 10732 10753 10765 10768 10778 10789 10799 10810 10818 10825 10832 10839 10843 10849 10853 10857 10859 10863 10865
10421 10413 10408 10403 10399 10399 10398 10400 10403 10406 10412 10426 10447 10460 10499 10501 10538 10568 10586 10612 10645 10669 10683 10695 10710 10721 10729 10741 10756 10763 10774 10788 10803 10808 10813 10819 10827 10832 10838 10841 10847 10852 10852 10850
10414 10406 10399 10393 10389 10387 10388 10387 10389 10394 10403 10428 10418 10446 10457 10484 10518 10550 10575 10598 10631 10655 10666 10682 10698 10704 10714 10731 10742 10754 10770 10784 10792 10795 10798 10810 10816 10821 10827 10832 10837 10837 10838 10839
10405 10399 10392 10385 10380 10376 10376 10375 10376 10384 10394 10392 10389 10415 10437 10473 10509 10529 10557 10584 10620 10644 10653 10671 10687 10696 10712 10722 10732 10747 10762 10769 10774 10779 10788 10798 10807 10810 10814 10821 10824 10824 10824 10824
10401 10389 10384 10378 10372 10369 10366 10364 10364 10370 10377 10380 10387 10425 10439 10468 10489 10514 10531 10562 10597 10617 10634 10652 10665 10686 10701 10714 10726 10737 10745 10751 10759 10769 10779 10789 10796 10799 10805 10805 10808 10811 10812 10811
10394 10383 10375 10368 10361 10356 10355 10353 10354 10359 10366 10375 10394 10413 10414 10444 10465 10476 10499 10535 10568 10595 10619 10638 10657 10678 10688 10704 10717 10726 10732 10739 10749 10762 10768 10774 10781 10789 10791 10794 10798 10801 10802 10802
10386 10380 10366 10359 10354 10348 10344 10343 10345 10349 10357 10365 10373 10390 10402 10421 10439 10468 10494 10529 10569 10591 10610 10627 10647 10665 10681 10698 10707 10715 10721 10733 10743 10752 10758 10763 10770 10777 10781 10783 10786 10789 10789 10789
10377 10367 10360 10352 10346 10341 10337 10335 10338 10343 10350 10356 10367 10380 10387 10418 10441 10462 10496 10528 10569 10583 10602 10619 10647 10658 10676 10687 10698 10705 10715 10725 10736 10742 10749 10755 10761 10766 10769 10772 10776 10777 10776 10776
10369 10360 10353 10346 10341 10335 10333 10333 10335 10338 10344 10348 10354 10368 10378 10405 10437 10458 10494 10526 10557 10575 10596 10628 10638 10651 10665 10678 10688 10698 10708 10718 10727 10733 10740 10747 10752 10756 10758 10761 10763 10763 10763 10764
10366 10357 10350 10343 10335 10333 10332 10332 10334 10336 10338 10345 10354 10361 10373 10400 10415 10452 10487 10519 10544 10562 10603 10616 10627 10642 10656 10669 10680 10688 10702 10710 10717 10727 10734 10738 10742 10746 10749 10750 10752 10753 10753 10752
10361 10355 10347 10340 10335 10333 10333 10334 10335 10337 10344 10347 10357 10369 10383 10402 10415 10443 10475 10505 10532 10573 10588 10604 10618 10634 10648 10658 10670 10682 10694 10703 10712 10720 10727 10729 10732 10735 10738 10741 10741 10741 10741 10741
10361 10354 10346 10342 10339 10337 10337 10337 10337 10333 10335 10346 10361 10374 10388 10399 10422 10452 10479 10511 10542 10562 10583 10593 10611 10627 10641 10655 10666 10676 10687 10698 10707 10712 10717 10720 10723 10727 10728 10729 10730 10730 10730 10729
10361 10354 10349 10346 10343 10340 10339 10341 10340 10337 10345 10351 10364 10377 10389 10407 10429 10452 10501 10522 10545 10566 10577 10590 10604 10620 10637 10650 10658 10670 10681 10692 10700 10704 10708 10712 10714 10716 10717 10718 10718 10718 10717 10717
10363 10355 10353 10352 10348 10346 10346 10347 10345 10347 10354 10360 10371 10385 10400 10423 10450 10487 10500 10523 10548 10562 10572 10586 10602 10618 10633 10643 10652 10664 10675 10684 10691 10697 10700 10703 10705 10705 10706 10707 10707 10707 10705 10703
10365 10361 10358 10355 10354 10355 10355 10353 10353 10354 10358 10370 10383 10406 10429 10442 10460 10486 10503 10525 10542 10555 10569 10584 10600 10615 10628 10638 10648 10658 10667 10676 10681 10687 10691 10693 10694 10696 10697 10697 10697 10695 10694 10693
10367 10365 10363 10362 10363 10362 10361 10363 10362 10363 10373 10381 10403 10421 10439 10454 10472 10490 10505 10522 10538 10554 10565 10581 10599 10614 10625 10634 10643 10651 10659 10667 10673 10679 10683 10684 10685 10686 10686 10686 10685 10684 10683 10681
10374 10373 10370 10370 10373 10372 10372 10376 10375 10378 10388 10398 10406 10423 10440 10458 10474 10493 10507 10521 10535 10547 10562 10584 10600 10612 10621 10629 10638 10645 10653 10660 10665 10669 10673 10674 10675 10674 10675 10675 10674 10673 10672 10669
10378 10378 10378 10379 10380 10382 10383 10385 10391 10395 10403 10414 10427 10440 10451 10466 10481 10500 10515 10525 10535 10549 10572 10587 10597 10607 10616 10625 10633 10641 10647 10652 10656 10659 10661 10663 10664 10665 10665 10664 10664 10662 10659 10656
10380 10382 10385 10386 10388 10391 10395 10399 10404 10411 10417 10425 10433 10446 10458 10469 10483 10495 10512 10527 10542 10561 10573 10582 10592 10602 10613 10621 10628 10634 10639 10643 10647 10650 10651 10652 10653 10654 10653 10653 10652 10650 10647 10644
10384 10386 10391 10393 10399 10400 10403 10408 10415 10421 10428 10434 10445 10454 10463 10477 10490 10502 10514 10532 10547 10561 10573 10583 10592 10601 10607 10615 10622 10626 10631 10635 10638 10640 10642 10644 10644 10643 10643 10642 10640 10637 10635 10632
10390 10392 10396 10401 10404 10409 10413 10418 10425 10430 10437 10446 10453 10462 10475 10485 10498 10510 10524 10538 10550 10560 10571 10580 10588 10596 10603 10609 10614 10618 10622 10625 10628 10631 10633 10633 10633 10631 10629 10629 10628 10626 10622 10618
10393 10395 10400 10405 10411 10417 10422 10426 10432 10438 10443 10451 10459 10468 10480 10492 10503 10515 10529 10542 10551 10559 10569 10577 10583 10590 10596 10601 10606 10610 10613 10616 10619 10620 10621 10621 10620 10619 10619 10617 10615 10612 10608 10604
10395 10398 10404 10406 10413 10421 10429 10434 10440 10447 10451 10458 10465 10475 10485 10496 10505 10515 10527 10538 10548 10556 10563 10571 10577 10583 10588 10593 10597 10600 10602 10605 10607 10608 10609 10609 10609 10608 10607 10603 10601 10597 10594 10589